Temp
69 70 72 67 51 52 47 52 63 62 65 72 74 70 68 71 69 59 72 79 82 79 76 75 74 76 76 75 75 75 75 76 77 77 77 77 77 77 77 76 76 76 77 77 77 75 75 74 73
72 73 69 60 47 42 47 59 59 65 72 70 68 70 65 66 75 74 72 79 82 81 77 76 73 75 75 75 75 75 75 76 77 77 77 77 77 77 77 76 76 75 76 76 76 74 73 73 72
68 75 58 52 48 43 48 61 65 70 75 73 67 71 68 67 76 78 77 81 81 82 78 77 72 74 75 75 75 75 75 76 76 76 76 76 76 76 76 75 75 75 76 75 74 73 72 72 72
68 64 61 48 46 54 55 62 67 68 72 71 70 63 69 78 74 76 80 80 79 81 79 72 72 74 74 74 75 75 75 75 76 76 76 76 76 75 75 75 74 75 74 74 73 72 72 71 71
66 60 48 45 47 56 63 66 67 65 68 68 68 65 68 73 78 76 76 79 78 79 79 73 72 74 74 74 74 75 75 75 75 75 76 76 75 74 74 74 74 74 73 73 72 71 71 70 70
53 56 43 41 47 57 62 67 68 67 69 69 67 64 67 76 74 74 76 76 79 76 73 74 69 70 72 73 73 74 74 75 75 75 74 74 73 73 73 73 73 72 72 72 71 70 69 69 68
50 48 43 45 48 53 60 69 65 65 66 68 71 61 65 72 73 76 74 76 77 74 72 73 72 70 68 69 70 72 72 73 73 73 73 72 72 71 71 71 71 72 71 71 69 68 68 67 66
55 50 43 46 46 49 62 66 71 68 66 75 73 63 60 71 74 74 73 73 70 71 71 72 71 70 70 69 66 68 69 70 70 69 68 68 68 68 67 67 69 70 70 69 68 67 66 65 64
60 42 39 43 46 51 62 60 68 73 68 70 69 66 71 72 74 68 65 66 67 69 71 72 70 70 71 69 64 64 65 66 65 65 64 64 66 66 65 65 67 68 68 67 67 66 65 63 62
48 41 42 52 54 53 59 61 63 64 64 63 64 69 73 71 69 65 62 64 66 67 69 71 71 70 68 69 66 67 66 67 67 66 66 66 66 66 64 62 63 65 65 66 65 64 62 60 54
49 41 49 52 56 58 56 58 63 60 58 64 63 66 70 68 66 65 64 64 66 67 69 70 70 69 68 67 67 65 65 64 65 65 66 66 64 60 59 59 58 57 58 56 57 56 54 57 56
43 50 51 53 56 55 53 58 56 58 60 67 68 69 68 69 66 67 65 65 66 67 68 69 68 67 67 66 68 66 64 63 63 65 65 65 60 57 57 58 58 55 54 53 51 52 54 55 57
42 46 51 54 55 55 56 53 53 54 62 66 68 69 65 65 66 67 70 68 67 67 67 67 67 66 66 67 66 66 64 63 63 64 65 63 57 56 57 55 55 54 54 53 53 52 53 53 55
43 43 44 49 51 54 51 51 53 55 61 61 63 64 66 65 64 66 66 66 68 68 68 66 65 66 66 66 64 64 64 64 64 64 64 60 58 56 55 54 54 53 53 53 52 52 52 52 53
40 33 39 42 45 45 50 43 45 55 59 58 59 62 64 65 65 65 66 67 67 68 66 65 64 65 65 64 64 63 63 63 63 62 64 60 59 57 54 53 52 52 53 53 53 53 52 51 54
32 32 24 37 41 44 45 33 45 54 55 54 56 58 61 64 65 65 67 67 67 65 63 63 64 63 63 64 63 63 62 62 62 62 63 62 58 57 54 52 52 52 52 51 50 50 50 49 50
29 20 24 30 42 41 39 34 46 52 52 52 55 56 59 61 65 68 68 67 66 67 65 62 63 61 62 62 62 60 60 60 60 60 60 60 60 57 54 52 52 52 51 50 51 49 49 48 49
20 23 27 27 36 37 36 37 45 48 50 49 51 54 56 59 62 67 66 68 66 65 65 64 62 61 61 60 59 57 57 57 58 59 59 60 59 59 54 53 51 51 49 49 49 49 49 48 48
28 25 23 26 33 34 33 34 41 47 49 48 50 52 54 57 63 66 66 62 63 64 64 63 61 60 60 57 55 54 54 55 55 57 57 59 58 58 57 53 51 50 49 48 49 48 47 46 47
26 22 23 29 36 34 33 33 39 42 43 47 50 52 54 57 60 62 66 66 61 62 64 63 62 60 60 58 58 58 57 56 56 55 55 57 57 57 58 56 52 50 49 48 48 47 45 45 46
25 23 24 24 31 33 30 26 32 40 43 46 48 50 55 56 56 60 59 63 61 61 62 64 63 61 60 59 58 56 57 55 53 52 53 55 57 56 56 56 53 50 50 49 48 47 46 42 44
20 30 29 26 23 14 28 11 25 34 37 42 46 48 50 54 56 56 57 54 54 56 58 62 63 60 60 60 56 56 55 52 54 53 53 55 56 55 54 55 53 51 50 48 48 49 46 44 41
23 31 27 25 20 18 19 14 21 32 31 37 43 47 50 54 56 56 56 56 56 55 55 57 60 59 58 58 57 57 56 57 57 55 52 53 54 54 54 55 54 52 50 47 49 46 46 45 42
31 26 25 24 20 10 17 15 18 25 31 36 43 47 51 54 56 57 57 57 55 54 53 54 55 56 57 56 56 56 56 56 55 53 51 52 52 53 53 54 53 53 51 48 48 45 45 44 44
25 20 11 9 8 6 25 20 21 31 37 40 41 46 50 54 55 55 55 55 52 51 51 53 54 54 55 55 55 55 56 57 56 54 53 51 50 51 51 51 52 51 51 48 48 46 46 44 42
21 20 13 5 5 13 27 13 20 33 36 41 41 39 41 49 47 43 42 43 43 43 44 48 50 53 53 54 55 55 56 56 57 56 55 53 51 51 51 50 52 52 50 48 47 45 44 41 40
22 19 24 16 17 12 15 23 31 28 26 29 30 34 33 37 37 36 37 36 34 34 35 36 39 41 48 52 55 54 55 54 55 56 55 54 54 51 48 48 48 48 48 45 44 42 37 38 37
26 27 13 15 9 -1 10 16 12 17 19 24 26 28 30 31 32 31 32 31 33 34 34 35 35 34 35 38 48 53 53 52 53 51 51 52 51 49 43 38 37 37 37 37 38 36 35 35 36
19 16 20 19 13 9 8 10 19 19 20 19 23 26 28 28 29 30 31 32 32 32 32 32 33 32 34 35 39 46 49 49 48 47 45 40 38 38 38 37 36 36 36 35 36 36 36 36 36
25 18 19 11 8 15 16 9 22 20 21 21 22 25 27 27 27 28 30 30 30 30 31 31 32 32 33 33 35 36 43 41 39 40 38 39 39 38 38 38 37 37 36 36 36 35 35 35 34
MSLP
1012.35 1012.14 1012.08 1011.56 1011.74 1009.74 1007.99 1006.56 1005.32 1004.39 1003.15 1002.12 1001.96 1002.03 1001.99 1001.95 1002.15 1002.56 1002.38 1002.16 1002.20 1003.10 1003.90 1004.77 1005.83 1006.50 1007.18 1007.55 1008.11 1008.56 1009.03 1009.25 1009.83 1010.30 1010.54 1010.93 1011.44 1011.92 1012.48 1012.92 1013.30 1013.64 1013.88 1014.29 1014.69 1015.12 1015.51 1015.83 1016.07
1011.93 1011.76 1011.60 1011.26 1010.71 1008.84 1006.83 1005.88 1004.41 1003.59 1002.94 1002.05 1002.01 1002.20 1002.14 1001.83 1001.27 1001.84 1002.54 1002.36 1002.24 1003.14 1004.08 1004.93 1005.69 1006.43 1007.00 1007.52 1008.02 1008.62 1008.94 1009.32 1009.52 1010.18 1010.61 1010.97 1011.51 1011.89 1012.50 1013.02 1013.48 1013.77 1014.08 1014.42 1014.90 1015.35 1015.76 1016.12 1016.32
1012.34 1011.30 1011.30 1010.53 1009.15 1007.56 1006.27 1004.85 1003.39 1002.44 1001.91 1001.80 1001.78 1001.99 1002.04 1001.70 1001.46 1001.54 1002.01 1002.34 1002.47 1002.81 1003.69 1004.85 1005.62 1006.45 1006.86 1007.43 1007.96 1008.46 1008.97 1009.30 1009.50 1010.02 1010.57 1010.95 1011.50 1012.13 1012.57 1013.18 1013.56 1013.93 1014.31 1014.66 1015.17 1015.61 1015.99 1016.29 1016.56
1011.42 1011.47 1011.06 1009.20 1007.25 1006.01 1005.78 1004.73 1003.31 1002.05 1001.47 1000.93 1001.52 1001.74 1001.53 1001.58 1001.38 1001.93 1002.15 1002.50 1002.64 1002.89 1003.62 1004.79 1005.58 1006.21 1006.90 1007.31 1008.02 1008.38 1008.94 1009.41 1009.57 1009.99 1010.46 1010.75 1011.57 1012.20 1012.82 1013.31 1013.79 1014.08 1014.61 1014.97 1015.51 1015.90 1016.27 1016.58 1016.78
1011.49 1011.02 1010.03 1008.56 1006.56 1005.60 1004.87 1003.93 1003.28 1002.29 1001.75 1001.42 1001.66 1001.51 1001.13 1001.07 1001.22 1001.85 1002.22 1002.43 1002.81 1003.01 1003.69 1004.46 1005.58 1006.11 1006.83 1007.22 1007.86 1008.37 1008.83 1009.39 1009.71 1010.12 1010.45 1010.71 1011.53 1012.24 1012.97 1013.51 1014.11 1014.29 1014.81 1015.42 1015.80 1016.20 1016.50 1016.80 1017.10
1011.36 1010.65 1009.15 1007.71 1005.88 1004.75 1003.93 1003.82 1002.71 1001.91 1001.32 1001.32 1001.56 1001.28 1001.01 1000.89 1001.41 1001.84 1002.06 1002.50 1002.72 1003.40 1003.97 1004.44 1005.22 1006.09 1006.70 1007.24 1007.65 1008.26 1008.70 1009.22 1009.57 1010.07 1010.52 1011.00 1011.60 1012.33 1013.09 1013.86 1014.26 1014.68 1015.16 1015.71 1016.20 1016.49 1016.75 1017.18 1017.32
1010.56 1010.03 1008.56 1007.53 1005.80 1004.25 1003.20 1003.35 1002.31 1001.58 1001.23 1000.52 1001.05 1001.17 1001.23 1000.97 1001.46 1001.65 1002.21 1002.47 1002.69 1003.73 1004.45 1004.72 1005.36 1005.98 1006.84 1007.40 1007.60 1008.07 1008.58 1009.04 1009.63 1010.06 1010.43 1011.10 1011.78 1012.70 1013.48 1014.22 1014.24 1014.83 1015.57 1015.92 1016.38 1016.75 1017.09 1017.36 1017.57
1010.45 1010.34 1008.90 1007.49 1005.69 1002.79 1003.01 1002.49 1000.98 1000.69 999.94 1000.67 1000.61 1000.74 1001.13 1000.96 1000.79 1001.49 1002.12 1002.67 1003.44 1003.69 1004.31 1004.94 1005.60 1005.98 1006.56 1007.50 1007.80 1008.12 1008.65 1009.33 1009.62 1010.25 1010.40 1010.80 1012.02 1012.97 1013.81 1014.07 1014.43 1015.02 1015.70 1016.11 1016.46 1016.91 1017.34 1017.65 1017.94
1010.16 1009.86 1007.86 1006.35 1005.14 1002.44 1002.88 1002.75 1001.27 1000.68 1000.05 999.98 1000.34 1000.56 1000.87 1001.00 1001.11 1002.25 1002.84 1003.44 1003.86 1004.08 1004.45 1004.75 1005.55 1006.26 1006.41 1007.31 1008.10 1008.19 1008.80 1009.57 1010.14 1010.85 1011.40 1011.71 1012.41 1013.02 1013.81 1014.09 1014.55 1015.16 1015.84 1016.27 1016.69 1017.11 1017.56 1018.04 1018.18
1009.76 1008.34 1006.62 1004.76 1004.12 1003.71 1003.29 1002.87 1001.63 1001.59 1000.12 999.95 1000.29 1000.43 1000.89 1001.38 1001.20 1002.22 1003.27 1003.74 1003.97 1004.04 1004.35 1004.63 1005.49 1005.96 1006.45 1007.25 1008.09 1008.58 1008.86 1009.80 1010.41 1010.80 1011.56 1012.27 1012.55 1013.25 1014.05 1014.18 1014.71 1015.39 1016.04 1016.52 1016.97 1017.44 1017.69 1017.96 1018.32
1008.61 1007.53 1006.55 1005.30 1004.52 1004.26 1003.44 1002.40 1002.33 1001.57 1000.43 1000.16 1000.22 1000.69 1001.04 1001.17 1001.24 1001.76 1002.72 1003.35 1003.33 1003.83 1004.09 1004.49 1005.13 1005.98 1006.25 1006.99 1007.85 1008.44 1008.92 1009.58 1010.60 1011.00 1011.45 1012.17 1012.75 1013.63 1014.40 1014.66 1015.11 1015.64 1016.27 1016.85 1017.27 1017.62 1017.78 1017.84 1018.10
1008.85 1007.59 1006.47 1005.05 1004.54 1004.44 1003.68 1003.00 1002.40 1001.57 1000.61 1000.61 1000.14 1000.03 1000.27 1000.58 1000.48 1001.13 1001.89 1002.73 1003.22 1003.72 1003.84 1004.41 1004.93 1005.60 1006.25 1006.87 1007.51 1008.22 1008.77 1009.54 1010.34 1010.89 1011.13 1011.98 1013.06 1013.76 1014.44 1014.89 1015.35 1015.72 1016.33 1017.02 1017.23 1017.58 1017.65 1017.85 1018.11
1009.28 1007.68 1006.71 1005.70 1004.87 1004.27 1004.03 1003.10 1002.56 1001.64 1000.84 1000.64 1000.50 1000.25 1000.04 1000.20 1000.22 1000.47 1001.00 1001.70 1002.51 1003.13 1003.66 1004.25 1004.77 1005.10 1006.06 1006.61 1007.34 1008.12 1008.56 1009.24 1010.04 1010.64 1011.11 1011.92 1013.15 1013.76 1014.16 1014.88 1015.43 1015.74 1016.09 1016.61 1016.97 1017.50 1017.88 1018.24 1018.41
1009.84 1008.82 1007.46 1006.39 1005.02 1004.01 1003.71 1002.96 1003.07 1001.14 1001.48 1001.18 1000.65 1000.20 1000.17 1000.10 1000.31 1000.48 1000.67 1001.14 1001.71 1002.26 1002.94 1004.02 1004.43 1004.86 1005.82 1006.27 1007.20 1007.93 1008.50 1008.79 1009.54 1010.47 1011.19 1011.89 1012.88 1013.70 1013.97 1014.67 1015.26 1015.84 1016.02 1016.36 1016.82 1017.38 1017.88 1018.32 1018.66
1010.55 1009.67 1008.12 1006.81 1005.95 1004.52 1004.67 1002.56 1001.61 1001.39 1001.80 1000.99 1000.85 1000.42 1000.15 1000.15 1000.08 1000.17 1000.33 1000.65 1001.18 1001.56 1002.40 1003.37 1004.23 1004.62 1005.50 1006.04 1006.99 1007.71 1008.30 1008.63 1009.40 1010.22 1011.05 1011.88 1012.50 1013.38 1013.99 1014.48 1015.07 1015.61 1015.92 1016.20 1016.72 1017.10 1017.67 1018.30 1018.51
1011.25 1010.62 1008.66 1007.22 1006.56 1004.97 1005.19 1002.05 1002.37 1002.07 1001.61 1000.88 1000.75 1000.27 1000.00 999.76 999.89 1000.02 1000.02 1000.21 1000.62 1001.44 1002.16 1003.27 1003.69 1004.30 1005.08 1005.69 1006.54 1007.34 1008.12 1008.64 1009.16 1009.94 1010.92 1011.44 1012.21 1013.06 1013.80 1014.54 1014.92 1015.20 1015.84 1016.36 1016.75 1017.18 1017.77 1018.30 1018.45
1011.10 1009.94 1009.00 1007.53 1006.86 1005.98 1004.49 1002.55 1002.34 1002.21 1001.41 1000.24 1000.22 1000.15 999.99 999.63 999.28 999.24 999.61 999.93 1000.22 1000.93 1001.86 1002.85 1003.52 1003.91 1004.79 1005.21 1006.28 1006.98 1007.78 1008.47 1008.98 1009.53 1010.51 1011.30 1011.86 1012.49 1013.55 1014.27 1014.64 1015.06 1015.73 1016.44 1017.01 1017.45 1017.70 1018.18 1018.50
1010.29 1009.61 1008.44 1007.35 1006.35 1005.63 1003.80 1002.81 1002.16 1001.49 1001.25 1000.04 1000.00 999.72 999.23 999.29 998.98 998.79 999.03 999.28 999.73 1000.40 1001.29 1002.27 1002.92 1003.65 1004.33 1005.13 1006.05 1006.94 1007.65 1008.38 1008.74 1009.24 1009.80 1010.67 1011.61 1012.16 1012.94 1013.81 1014.32 1014.85 1015.64 1016.18 1016.77 1017.34 1017.76 1018.02 1018.38
1010.08 1009.58 1008.77 1008.21 1007.09 1005.55 1004.25 1003.14 1001.82 1001.06 999.76 999.78 999.45 999.48 998.72 998.48 998.18 998.18 998.49 998.92 999.28 999.83 1000.66 1001.59 1002.58 1003.35 1003.95 1004.50 1005.59 1006.57 1007.17 1008.05 1008.58 1009.05 1009.41 1010.14 1011.11 1011.82 1012.59 1013.25 1013.97 1014.51 1015.20 1015.82 1016.39 1017.09 1017.67 1018.21 1018.49
1009.63 1008.90 1007.92 1007.17 1006.33 1005.38 1004.55 1002.95 1002.61 1001.23 1000.23 999.78 999.07 998.21 998.04 997.81 997.39 997.27 997.34 998.09 998.92 999.46 999.82 1000.71 1001.56 1002.52 1003.26 1004.11 1005.09 1005.86 1006.69 1007.53 1008.00 1008.81 1009.31 1009.73 1010.58 1011.29 1011.88 1012.79 1013.45 1014.00 1014.86 1015.54 1016.21 1016.68 1017.61 1018.13 1018.23
1008.43 1008.16 1007.37 1006.88 1006.02 1005.34 1004.90 1003.07 1002.25 1001.06 1000.07 999.65 998.91 998.64 997.88 996.99 996.65 996.56 996.72 997.13 997.94 998.63 999.19 999.72 1000.29 1001.29 1002.28 1003.13 1004.52 1005.39 1006.42 1007.12 1007.96 1008.62 1009.01 1009.28 1009.66 1010.35 1011.22 1012.11 1013.03 1013.77 1014.17 1014.96 1015.42 1016.07 1016.74 1017.67 1018.19
1007.47 1007.16 1007.00 1006.61 1006.61 1005.83 1005.56 1003.50 1002.33 1001.02 999.47 998.95 998.22 997.93 997.42 996.79 996.51 996.25 996.48 996.83 997.44 998.27 999.10 999.57 1000.06 1000.70 1001.48 1002.49 1003.77 1004.57 1005.25 1005.95 1006.43 1007.28 1008.10 1008.74 1009.44 1010.15 1010.83 1011.42 1012.46 1013.24 1013.88 1014.22 1014.78 1015.34 1015.96 1016.67 1017.67
1007.16 1006.73 1006.56 1006.61 1006.44 1006.38 1005.09 1004.71 1002.26 1001.03 999.12 998.10 997.57 997.11 996.54 996.18 996.30 996.05 996.37 997.06 997.35 998.09 998.71 999.26 999.92 1000.40 1001.06 1001.83 1002.91 1003.80 1004.55 1005.17 1005.73 1006.83 1007.62 1008.24 1008.97 1009.59 1010.25 1010.90 1011.75 1012.43 1013.25 1013.76 1014.23 1014.95 1015.43 1015.91 1016.82
1007.20 1006.59 1006.30 1006.41 1006.48 1005.19 1003.91 1004.56 1001.21 999.84 998.27 997.57 997.06 996.43 996.19 995.58 995.43 995.63 995.85 996.46 997.38 997.90 998.55 999.16 999.74 1000.22 1000.67 1001.07 1002.20 1003.03 1003.69 1004.46 1005.16 1005.89 1006.77 1007.60 1008.33 1008.96 1009.65 1010.36 1011.07 1011.66 1012.29 1013.06 1013.70 1014.29 1014.90 1015.37 1015.90
1006.90 1006.84 1006.32 1006.22 1005.78 1003.82 1002.53 1002.53 999.58 998.19 997.59 997.01 996.79 996.18 995.78 995.08 995.13 995.45 996.13 997.03 997.54 998.12 998.58 999.02 999.50 999.97 1000.39 1000.82 1001.18 1002.14 1002.69 1003.51 1004.04 1004.85 1005.64 1006.61 1007.44 1008.15 1008.77 1009.50 1010.19 1010.98 1011.65 1012.43 1013.18 1013.78 1014.37 1014.83 1015.44
1006.60 1006.36 1006.22 1005.44 1004.60 1003.12 1001.99 1000.79 1000.08 999.42 999.01 997.16 997.38 997.65 996.78 994.94 995.98 996.89 997.83 998.53 998.96 999.48 999.76 1000.03 1000.17 1000.26 1000.52 1000.90 1001.19 1001.67 1002.54 1003.01 1003.21 1003.72 1004.44 1005.30 1006.08 1006.78 1007.85 1008.78 1009.55 1010.23 1010.97 1011.80 1012.58 1013.32 1013.86 1014.41 1015.04
1006.75 1006.55 1006.56 1005.25 1003.57 1003.67 1002.07 1000.37 999.68 1000.44 1000.42 1000.54 999.92 999.37 999.88 999.34 998.88 999.48 999.96 1000.55 1000.61 1001.13 1001.60 1001.88 1001.85 1001.62 1001.03 1000.97 1001.21 1001.46 1002.07 1002.51 1002.72 1003.08 1003.66 1004.40 1005.20 1006.10 1007.14 1008.11 1008.94 1009.70 1010.24 1011.10 1011.92 1012.75 1013.48 1014.15 1014.85
1007.35 1007.13 1006.22 1005.70 1004.21 1003.48 1002.19 1002.04 1003.28 1003.21 1003.30 1003.10 1002.54 1001.74 1002.37 1001.98 1000.95 1001.13 1001.68 1002.04 1001.92 1002.48 1002.91 1002.98 1002.94 1002.75 1002.42 1001.94 1001.22 1001.13 1001.51 1001.94 1002.38 1002.82 1003.24 1003.69 1004.49 1005.35 1006.57 1007.63 1008.48 1009.38 1009.97 1010.62 1011.46 1012.56 1013.35 1014.08 1014.91
1007.43 1007.33 1007.66 1007.03 1005.91 1004.08 1003.62 1004.87 1005.65 1005.56 1005.54 1005.11 1004.85 1004.40 1004.01 1003.14 1003.08 1003.32 1003.48 1003.44 1003.41 1003.77 1003.98 1003.87 1003.53 1003.24 1002.95 1002.55 1002.05 1001.33 1001.21 1001.61 1002.11 1002.64 1003.05 1003.72 1004.41 1004.97 1006.26 1007.57 1008.47 1009.21 1009.92 1010.53 1011.20 1012.03 1012.90 1013.68 1014.52
1007.91 1008.51 1008.53 1007.73 1006.10 1005.30 1004.49 1006.55 1006.72 1006.86 1006.86 1006.47 1006.12 1005.66 1005.52 1005.50 1004.89 1004.51 1004.27 1003.97 1004.30 1004.77 1004.67 1004.31 1003.89 1003.73 1003.55 1002.98 1002.52 1002.14 1001.47 1001.68 1002.12 1002.60 1003.07 1003.53 1004.20 1004.86 1005.79 1006.91 1007.68 1008.47 1009.20 1009.90 1010.38 1011.14 1012.03 1012.77 1013.75
Wind_Speed
8 9 7 3 5 7 14 18 15 19 23 8 9 5 7 10 7 5 2 6 6 17 17 20 21 19 18 18 17 16 15 16 15 13 17 18 18 17 16 14 13 13 16 16 16 14 12 11 10
8 10 5 4 8 14 13 20 21 20 17 3 1 8 5 14 5 3 6 5 6 16 15 16 17 19 19 18 17 16 17 17 17 15 17 18 18 18 16 15 13 14 16 17 15 13 12 11 10
11 14 3 5 10 18 17 19 15 19 18 14 6 7 7 5 7 8 8 9 7 13 17 15 16 18 19 19 18 17 17 18 17 17 18 19 19 17 17 15 16 16 17 16 14 13 12 11 10
5 2 6 9 21 21 26 23 20 23 12 4 7 5 6 11 2 8 9 7 6 13 17 17 18 19 19 19 17 17 16 17 17 18 19 21 19 18 17 17 17 17 16 15 14 13 12 11 10
7 5 10 15 26 24 20 23 24 26 19 8 6 13 14 3 8 5 5 5 6 9 14 19 19 19 19 19 18 17 17 17 17 19 20 21 20 19 18 18 17 18 17 15 15 14 13 11 10
5 5 10 20 29 25 23 23 23 19 17 11 10 7 10 6 6 6 7 7 7 8 13 15 17 15 18 18 18 17 19 17 18 18 19 18 19 21 18 18 18 18 17 15 14 13 13 11 11
15 11 17 22 24 23 23 22 23 23 24 22 7 9 7 10 7 8 7 7 6 11 10 12 13 14 13 13 14 15 15 16 17 19 21 21 21 18 18 17 19 18 16 16 15 13 13 12 11
12 12 22 22 24 33 22 22 21 24 25 16 9 13 8 8 11 9 6 7 6 7 7 12 12 12 12 10 12 14 14 14 16 16 18 22 20 19 16 14 17 18 16 15 15 14 12 12 10
17 16 19 31 32 32 13 20 25 22 19 14 8 7 10 8 10 8 6 4 4 4 9 12 12 13 12 10 6 12 15 14 15 15 15 14 10 13 13 12 15 16 15 15 15 14 13 11 9
19 19 30 31 27 26 21 25 23 19 23 11 8 7 14 7 10 11 8 9 9 10 10 12 12 13 13 9 10 7 13 10 10 12 11 8 10 9 8 12 14 15 13 15 14 13 13 9 4
21 25 27 27 29 27 29 28 19 20 24 20 10 12 15 7 8 12 12 11 15 10 9 11 13 13 13 11 9 6 5 7 7 11 9 9 8 7 6 6 6 6 9 4 7 6 3 4 4
24 26 29 30 28 27 27 24 22 22 27 18 12 9 7 14 13 12 15 13 12 13 11 11 13 12 12 9 8 9 8 7 7 8 8 8 5 6 6 5 6 5 5 6 5 3 5 5 5
24 28 27 27 29 28 23 27 25 27 27 18 17 16 7 8 9 9 10 11 9 15 13 11 13 13 12 13 8 9 10 9 8 7 7 8 5 5 7 5 5 5 4 5 5 5 5 5 5
20 25 27 26 27 26 28 29 26 31 23 20 18 19 13 8 7 7 7 7 13 14 17 13 12 13 13 12 11 9 9 11 10 8 8 8 6 5 6 5 5 5 5 5 5 5 5 5 5
17 23 21 25 27 28 23 28 29 26 22 22 20 19 18 14 8 9 8 11 8 9 13 15 12 12 14 14 12 9 8 10 10 8 10 8 7 6 6 5 5 5 4 7 5 5 5 5 4
21 22 18 19 20 24 23 27 24 19 23 25 20 20 20 21 18 9 8 7 8 8 9 11 12 12 14 13 11 9 9 9 9 9 9 10 9 8 6 5 5 6 5 4 5 5 5 5 5
14 19 23 27 22 24 28 28 24 22 24 22 25 25 23 21 19 19 15 8 9 13 13 12 11 14 13 13 10 10 11 9 8 9 9 9 7 9 7 5 5 6 5 5 4 3 4 4 4
19 19 20 22 19 19 29 28 24 30 29 26 22 20 18 28 27 18 13 14 9 11 15 15 12 13 14 9 10 8 8 7 8 10 11 13 9 9 7 6 7 7 5 5 4 5 2 4 5
24 24 24 20 24 24 23 23 23 26 24 30 25 22 21 20 23 26 16 9 9 11 14 17 15 13 10 9 9 7 10 9 8 7 10 13 11 10 8 6 8 6 7 6 6 4 5 2 3
23 25 23 21 19 20 21 23 22 25 21 20 20 20 27 25 20 15 22 20 13 14 16 16 18 16 14 10 9 6 9 8 9 8 9 12 14 13 11 9 9 9 7 8 7 6 4 3 5
22 22 23 22 22 22 21 24 21 22 21 21 21 19 22 19 14 17 10 18 17 17 17 18 19 20 17 15 9 4 8 6 6 8 9 12 16 15 13 10 9 9 8 9 9 8 8 5 4
22 19 22 23 19 16 11 17 17 18 23 21 20 19 17 19 14 8 7 8 11 10 9 11 13 18 16 16 12 13 11 10 8 10 9 9 13 13 12 12 11 11 7 9 9 8 5 6 5
14 15 17 16 14 13 19 10 15 17 22 17 20 23 20 18 20 14 9 7 9 9 9 8 9 14 14 16 14 13 13 10 6 9 11 12 12 13 14 13 13 12 8 7 11 9 7 5 6
17 15 14 11 8 14 18 11 17 18 22 17 19 21 23 21 22 16 9 7 7 8 8 8 9 14 16 18 18 18 17 14 9 11 11 11 10 10 13 14 13 13 12 10 10 8 8 7 6
6 7 3 5 7 12 10 13 20 11 21 20 21 22 19 22 21 17 13 10 7 9 9 9 11 13 15 17 19 20 20 18 17 14 12 13 11 10 14 16 15 11 12 9 10 10 10 8 6
16 4 3 6 4 8 9 7 5 12 15 17 7 8 18 7 7 14 16 12 11 11 12 7 3 9 12 14 16 15 15 11 12 13 12 11 12 13 14 15 15 15 14 11 11 9 8 7 6
6 8 13 8 17 8 6 8 4 19 20 19 16 17 17 17 16 16 14 12 13 12 12 11 10 9 4 9 12 13 12 14 13 13 12 11 12 10 13 15 14 13 14 12 12 9 8 8 6
6 7 9 4 6 4 4 0 8 17 16 15 15 15 12 12 15 15 13 12 12 10 9 10 10 9 9 8 5 9 11 11 11 7 8 12 10 12 11 10 9 8 8 9 11 8 7 10 6
5 7 6 8 5 3 4 4 8 10 10 11 11 11 10 13 13 11 9 9 7 6 6 5 6 7 9 8 8 5 7 9 9 8 6 7 6 9 10 10 9 10 11 10 11 11 12 12 11
3 5 6 5 6 5 4 3 5 10 9 11 10 11 9 8 9 9 9 10 9 7 6 5 5 5 6 6 6 6 4 5 7 6 6 8 10 10 13 14 14 13 14 14 15 16 14 15 14
Wind_Direction
243 225 248 258 237 235 237 236 253 257 267 265 293 291 273 247 230 209 191 87 28 129 149 157 166 167 168 162 160 159 159 157 157 159 156 149 146 143 145 140 140 146 136 132 120 115 118 112 115
233 208 233 258 240 239 232 242 239 249 259 169 306 309 255 272 252 164 153 158 148 132 144 162 163 166 165 162 161 162 161 160 155 153 151 146 145 143 144 142 141 140 131 121 120 121 119 118 117
265 225 230 209 239 237 245 246 243 241 242 234 194 227 262 260 245 265 108 141 182 139 145 163 159 166 162 160 163 166 166 165 157 152 147 143 141 142 139 140 139 135 126 120 119 120 117 112 109
239 210 267 248 238 231 236 254 267 287 309 216 219 214 197 240 283 39 111 145 186 140 148 151 159 166 162 161 165 163 167 172 161 155 150 142 142 139 138 139 134 124 123 122 124 119 113 109 104
255 230 231 236 244 248 252 236 241 257 270 263 250 240 253 253 107 98 113 144 187 153 153 154 161 165 163 163 165 170 170 170 164 160 152 142 143 138 136 131 133 128 122 126 123 119 112 106 102
219 223 239 230 243 242 239 253 270 268 269 235 249 263 252 226 176 166 157 178 194 129 140 154 153 156 161 166 165 170 163 161 163 163 157 146 140 135 130 137 131 125 126 128 123 117 110 106 98
234 233 235 246 257 256 240 240 242 246 259 257 249 224 244 244 155 157 179 177 166 119 143 145 159 154 154 163 159 155 159 154 153 148 139 134 126 129 132 137 127 126 132 128 123 117 114 108 101
240 246 254 249 254 255 250 263 250 237 237 261 221 256 250 269 158 142 154 110 111 139 150 155 159 158 158 161 156 148 141 146 154 142 139 127 127 121 123 123 128 132 133 131 127 123 117 111 107
245 235 236 238 243 245 253 252 272 279 286 231 222 250 263 105 116 99 104 124 153 174 175 160 165 165 158 148 138 135 127 120 121 114 117 118 127 124 124 121 127 131 132 131 129 127 122 118 111
235 237 234 237 245 254 256 261 269 277 275 251 233 269 282 176 155 149 166 187 193 189 181 170 166 157 147 145 141 140 130 135 136 133 129 130 119 124 122 122 119 123 129 133 132 134 139 137 131
235 241 247 254 253 260 271 267 278 271 268 262 238 216 250 220 182 168 182 201 198 193 174 169 163 161 158 150 153 152 132 130 136 149 133 135 114 115 121 117 116 120 118 123 133 147 162 177 131
265 253 248 256 258 267 272 285 280 271 266 279 266 233 248 261 185 200 188 199 190 189 177 175 169 161 160 151 159 154 144 140 145 151 134 130 125 128 133 138 141 140 152 157 153 155 114 84 80
262 267 270 265 263 264 266 265 271 270 274 278 277 280 271 275 224 203 203 190 193 197 183 182 172 158 162 157 151 155 152 146 154 146 136 122 134 145 143 150 146 148 148 150 139 129 131 129 116
293 291 288 285 282 270 252 257 261 261 267 271 267 271 256 226 246 221 210 224 194 188 182 181 172 163 163 160 156 159 160 150 151 153 149 139 143 155 147 145 141 151 150 152 140 148 142 144 131
306 300 295 278 273 272 275 270 257 253 263 259 261 260 269 269 246 222 223 204 206 181 161 172 166 164 168 164 162 158 162 155 152 151 155 147 142 157 148 144 145 158 163 147 141 139 134 130 145
276 277 283 275 279 283 262 263 265 270 248 254 248 260 262 260 253 245 252 206 193 160 149 159 173 165 171 166 164 160 163 158 154 150 163 157 152 157 147 150 150 148 135 132 131 138 138 150 145
252 270 267 276 260 262 261 268 262 266 267 255 239 244 256 256 258 241 237 228 190 176 174 171 172 170 175 163 161 154 158 160 160 148 159 165 159 154 146 151 152 140 136 137 150 153 146 148 144
266 262 268 263 266 285 266 262 266 243 248 258 259 259 248 235 246 239 234 217 191 173 179 184 171 172 168 156 150 145 154 154 160 168 168 164 167 156 147 152 148 143 146 153 149 153 153 148 154
257 269 281 294 289 285 276 281 273 255 245 241 244 252 261 254 244 236 224 209 190 173 175 185 177 176 156 157 156 160 168 170 174 173 162 163 160 159 161 159 151 152 153 161 158 143 147 102 133
286 276 276 264 271 274 278 273 274 285 286 288 277 251 231 246 245 248 215 223 186 185 184 183 184 177 176 163 175 176 172 187 177 166 159 162 164 173 173 172 163 160 152 157 164 150 137 128 172
272 266 267 269 277 275 282 279 272 266 267 267 268 274 268 245 243 236 222 208 195 193 196 193 182 180 181 169 169 157 161 147 157 169 175 183 179 174 177 169 164 169 160 174 173 165 162 145 209
274 264 268 271 274 271 279 285 280 267 259 254 259 256 259 256 267 245 253 169 164 185 191 204 199 181 179 166 169 178 181 175 187 187 182 182 181 174 173 168 166 172 177 173 176 167 164 138 156
286 292 263 265 262 274 256 256 264 256 258 251 239 247 250 240 245 238 232 188 185 178 187 189 196 167 170 175 176 187 193 194 167 173 169 179 181 178 179 179 172 175 179 171 171 172 174 160 147
276 281 271 266 268 250 250 225 257 240 241 244 247 238 238 242 228 230 232 229 178 175 161 172 170 172 174 175 185 193 197 191 180 173 175 181 182 182 183 183 183 182 178 177 177 169 173 178 156
270 292 257 223 214 249 244 220 237 254 238 237 233 237 243 229 222 219 209 216 162 159 169 174 183 184 186 189 188 199 201 197 194 182 183 179 181 189 189 187 188 186 179 174 168 170 179 176 170
306 235 279 281 253 291 313 256 270 9 336 257 283 341 15 261 68 69 53 53 60 49 43 24 212 193 193 195 202 202 206 208 202 188 187 187 188 192 185 190 191 186 177 172 171 174 175 163 167
339 324 303 268 247 261 237 277 126 12 20 6 8 35 17 11 38 41 41 37 37 29 19 11 2 355 312 211 208 202 201 202 205 202 187 190 187 184 182 186 189 186 176 173 168 171 162 157 156
290 325 327 332 297 269 271 359 341 356 356 358 11 31 11 0 21 23 22 20 29 18 5 356 352 339 326 317 275 196 195 194 202 193 197 187 182 171 168 167 163 164 162 158 159 151 149 146 146
352 1 331 276 230 269 307 68 355 357 359 355 5 14 12 18 25 21 15 19 31 18 3 351 354 342 331 324 312 264 182 183 187 195 186 158 137 141 145 158 157 168 169 167 155 161 159 159 158
94 10 321 289 317 311 282 59 16 16 0 2 4 6 20 19 25 17 12 22 22 2 356 353 6 355 336 327 311 313 211 155 171 182 165 158 161 155 160 170 178 179 178 176 172 167 172 169 171